TimePDT,TemperatureF,Dew PointF,Humidity,Sea Level PressureIn,VisibilityMPH,Wind Direction,Wind SpeedMPH,Gust SpeedMPH,PrecipitationIn,Events,Conditions,WindDirDegrees,DateUTC
12:00 AM,70.7,54.0,55,29.86,-9999.0,SSE,4.6,-,N/A,,Unknown,150,2013-07-24 07:00:00
1:00 AM,72.1,56.7,58,29.87,-9999.0,NE,3.5,-,N/A,,Unknown,40,2013-07-24 08:00:00
2:00 AM,74.1,51.8,46,29.87,-9999.0,ESE,3.5,-,N/A,,Unknown,110,2013-07-24 09:00:00
3:00 AM,68.5,53.1,58,29.88,-9999.0,NNE,1.2,-,N/A,,Unknown,30,2013-07-24 10:00:00
4:00 AM,70.3,50.5,49,29.90,-9999.0,North,3.5,-,N/A,,Unknown,10,2013-07-24 11:00:00
5:00 AM,66,49,43,29.91,,ENE,2.3,,,,,70,2013-07-24 12:00:00
5:00 AM,66.4,48.7,53,29.91,-9999.0,ENE,2.3,-,N/A,,Unknown,70,2013-07-24 12:00:00
6:00 AM,67.5,46.4,47,29.92,-9999.0,NE,4.6,-,N/A,,Unknown,40,2013-07-24 13:00:00
7:00 AM,66.2,50.4,57,29.94,-9999.0,NE,2.3,-,N/A,,Unknown,40,2013-07-24 14:00:00
8:00 AM,72.1,47.8,42,29.95,-9999.0,ENE,1.2,-,N/A,,Unknown,60,2013-07-24 15:00:00
9:00 AM,77.5,41.7,28,29.94,-9999.0,South,3.5,-,N/A,,Unknown,180,2013-07-24 16:00:00
10:00 AM,82.0,46.2,28,29.92,-9999.0,South,2.3,-,N/A,,Unknown,190,2013-07-24 17:00:00
11:00 AM,86,48,17,29.91,,SE,3.5,,,,,140,2013-07-24 18:00:00
11:00 AM,86.0,48.2,27,29.91,-9999.0,SE,3.5,-,N/A,,Unknown,140,2013-07-24 18:00:00
12:00 PM,91.4,40.1,17,29.88,-9999.0,WNW,5.8,-,N/A,,Unknown,300,2013-07-24 19:00:00
1:00 PM,93.6,37.9,14,29.88,-9999.0,NW,3.5,-,N/A,,Unknown,310,2013-07-24 20:00:00
2:00 PM,94.6,36.1,13,29.86,-9999.0,NW,2.3,-,N/A,,Unknown,320,2013-07-24 21:00:00
3:00 PM,95.5,36.9,13,29.85,-9999.0,NW,3.5,-,N/A,,Unknown,320,2013-07-24 22:00:00
4:00 PM,98.2,37.9,12,29.83,-9999.0,NW,2.3,-,N/A,,Unknown,320,2013-07-24 23:00:00
5:00 PM,99,39,6,29.82,,WNW,1.2,,,,,290,2013-07-25 00:00:00
5:00 PM,98.6,39.2,13,29.82,-9999.0,WNW,1.2,-,N/A,,Unknown,290,2013-07-25 00:00:00
6:00 PM,98.4,36.0,11,29.81,-9999.0,NW,3.5,-,N/A,,Unknown,320,2013-07-25 01:00:00
7:00 PM,94.3,52.9,25,29.80,-9999.0,NE,1.2,-,N/A,,Unknown,40,2013-07-25 02:00:00
8:00 PM,86.9,63.7,46,29.81,-9999.0,NE,2.3,-,N/A,,Unknown,40,2013-07-25 03:00:00
9:00 PM,78.6,54.7,43,29.82,-9999.0,NE,2.3,-,N/A,,Unknown,40,2013-07-25 04:00:00
10:00 PM,72.3,55.2,55,29.84,-9999.0,ESE,1.2,-,N/A,,Unknown,120,2013-07-25 05:00:00
11:00 PM,70,54,48,29.86,,NE,2.3,,,,,40,2013-07-25 06:00:00
11:00 PM,70.0,54.5,58,29.86,-9999.0,NE,2.3,-,N/A,,Unknown,40,2013-07-25 06:00:00